Tracking 29892 objects as of 21-Nov-2024
HD Live streaming from Space Station
objects crossing your sky now

COSMOS 1823 DEB

Track COSMOS 1823 DEB now!
10-day predictions


NORAD ID: 39808
Int'l Code: 1987-020EG
Perigee: 1,457.1 km
Apogee: 1,534.9 km
Inclination: 73.6 °
Period: 115.7 minutes
Semi major axis: 7867 km
RCS: 0.0205 m2 (small)
Launch date: February 20, 1987
Source: Commonwealth of Independent States (former USSR) (CIS)
Launch site: PLESETSK MISSILE AND SPACE COMPLEX (PKMTR)

Note: This is SATELLITE DEBRIS
Your satellite tracking list
Your tracking list is empty




NASA's NSSDC Master Catalog

Two Line Element Set (TLE):
1 39808U 87020EG  24320.67692791  .00000436  00000-0  32069-2 0  9998
2 39808  73.6289 104.1634 0049468 295.2036  64.3885 12.44190704474362
Source of the keplerian elements: AFSPC